North Bay Jack Garland Airport

Airport
ICAO code: 
CYYB
Summary
ICAO Region: 
NAM
Territory: 
Location: 
North Bay, Ontario,
Coordinates: 
Aerial View: 
46° 21' 49" N, 79° 25' 22" W
Airport CFIT: 
Altimeter Temperature Error Correction
Airport GND: 
Aircraft Ground De/Anti Icing
Metar
Observation
CYYB 072000Z 23004KT 230V300 30SM FEW030 FEW160 SCT260 M12/M18 A3007 RMK SC1AC1CI1 SLP218
Station
North Bay, Ont.
Date/Time
2021-12-07 20:00:00
Wind direction
230°
Wind speed
04 kts
Lowest cloud amount
few clouds
Temperature
-12°C
Dew point
-18°C
Humidity
60%
Weather condition
n/a

Description

Regional airport located in North Bay, Ontario, Canada.

Climatology

Humid Continental climate (Köppen climate classification Dfb) - Variable weather patterns and a large seasonal temperature variance. Summers are often warm and humid with frequent thunderstorms and winters can be very cold with frequent snowfall and persistent snow cover.

Runways

Designator Length Width Surface Rops
13/31 762 23 GRS No/No
18/36 1364 46 ASP Yes/Yes
8/26 3048 61 ASP Yes/Yes
Airport map: 
Aerial View: 

SKYbrary Partners:

Safety knowledge contributed by: